Location: Unspecified
(50.7693°N, 0.0000°E)
Time: 13:39:05
(UTC+00:00)

Vanguard 2 - Pass Details

Date: 19 June 2019
Orbit: 553 x 2938 km, 32.9° (Epoch: 20 August)

Event Time Altitude Azimuth Distance (km) Brightness Sun altitude
Rises 11:12:50 0° 242° (WSW) 4,025 11.3 61.1°
Reaches altitude 10° 11:15:40 10° 230° (SW) 3,360 11.1 61.3°
Maximum altitude 11:22:55 29° 175° (S) 2,882 11.5 61.7°
Drops below altitude 10° 11:33:28 10° 124° (SE) 4,980 12.1 62.1°
Sets 11:38:48 0° 115° (ESE) 6,327 12.4 62.3°
